Location: Riverside
(39.1734°N, 77.8561°W)
Time: 10:26:46
(UTC+00:00)

MOZHAYETS 4 - Visible Passes

Search period start: 21 May 2019 00:00
Search period end: 31 May 2019 00:00
Orbit: 662 x 681 km, 98.0° (Epoch: 21 May)

Date Brightness Start Highest point End Pass type
(mag) Time Alt. Az. Time Alt. Az. Time Alt. Az.
21 May 9.7 06:24:55 20° E 06:26:36 24° ENE 06:30:18 10° NNE visible
21 May 8.5 08:03:09 31° WSW 08:03:34 31° W 08:07:41 10° NNW visible
22 May 8.3 06:58:21 41° ESE 06:59:31 53° ENE 07:04:01 10° N visible
22 May 9.5 08:36:35 14° W 08:36:56 14° W 08:39:24 10° WNW visible
23 May 10.4 05:54:14 10° E 05:56:03 12° ENE 05:57:53 10° NE visible
23 May 7.6 07:31:47 56° SSW 07:32:36 68° W 07:37:12 10° NNW visible
24 May 9.6 06:27:00 20° ESE 06:28:49 26° ENE 06:32:36 10° NNE visible
24 May 8.6 08:05:14 29° WSW 08:05:49 30° W 08:09:51 10° NW visible
25 May 8.2 07:00:27 41° SE 07:01:45 56° ENE 07:06:15 10° N visible
25 May 9.5 08:38:40 13° W 08:39:11 13° W 08:41:25 10° WNW visible
26 May 10.4 05:56:13 10° E 05:58:15 13° ENE 06:00:18 10° NE visible
26 May 7.7 07:33:54 51° SSW 07:34:50 64° W 07:39:24 10° NNW visible
27 May 9.5 06:29:07 20° ESE 06:31:02 27° ENE 06:34:53 10° NNE visible
27 May 8.7 08:07:20 27° WSW 08:08:03 28° W 08:12:01 10° NW visible
28 May 8.1 07:02:34 40° SE 07:03:58 59° ENE 07:08:29 10° N visible
28 May 9.6 08:40:47 12° W 08:41:26 13° W 08:43:24 10° WNW visible
29 May 10.4 05:58:13 10° E 06:00:27 14° ENE 06:02:42 10° NE visible
29 May 7.7 07:36:01 47° SSW 07:37:03 60° W 07:41:36 10° NNW visible
30 May 9.4 06:31:14 20° ESE 06:33:15 28° ENE 06:37:09 10° N visible
30 May 8.7 08:09:27 25° WSW 08:10:18 26° W 08:14:10 10° NW visible
